| time (UTC) | temp F | wind direction | speed MPH | gust MPH | rain 1hr in | rain 24hr in | rain mn in | humidity % | barometer mb |
| 20260904194717 | 71 | 336 | 1.0 | 3.0 | 0.00 | 0.00 | 0.00 | 89 | 1012.6 |
| 20260904194114 | 71 | 336 | 1.0 | 3.0 | 0.00 | 0.00 | 0.00 | 89 | 1012.6 |
| 20260904193708 | 71 | 336 | 1.0 | 3.0 | 0.00 | 0.00 | 0.00 | 89 | 1012.8 |
| 20260904193110 | 71 | 336 | 1.0 | 3.0 | 0.00 | 0.00 | 0.00 | 89 | 1012.6 |
| 20260904192708 | 71 | 336 | 1.0 | 3.0 | 0.00 | 0.00 | 0.00 | 89 | 1012.6 |
| 20260904192111 | 71 | 335 | 2.0 | 5.0 | 0.00 | 0.00 | 0.00 | 89 | 1012.6 |
| 20260904191705 | 71 | 342 | 2.0 | 5.0 | 0.00 | 0.00 | 0.00 | 89 | 1012.6 |
| 20260904191110 | 71 | 338 | 2.0 | 6.0 | 0.00 | 0.00 | 0.00 | 89 | 1012.6 |
| 20260904190703 | 71 | 335 | 2.0 | 6.0 | 0.00 | 0.00 | 0.00 | 89 | 1012.6 |
| 20260904190108 | 71 | 336 | 2.0 | 6.0 | 0.00 | 0.00 | 0.00 | 89 | 1012.6 |
| 20260904185702 | 71 | 320 | 2.0 | 6.0 | 0.00 | 0.00 | 0.00 | 88 | 1012.6 |
| 20260904184659 | 71 | 5 | 2.0 | 5.0 | 0.00 | 0.00 | 0.00 | 88 | 1012.6 |
| 20260904184104 | 71 | 355 | 2.0 | 6.0 | 0.00 | 0.00 | 0.00 | 88 | 1012.6 |
| 20260904183657 | 72 | 355 | 2.0 | 7.0 | 0.00 | 0.00 | 0.00 | 88 | 1012.6 |
| 20260904182700 | 72 | 263 | 2.0 | 8.0 | 0.00 | 0.00 | 0.00 | 88 | 1012.8 |
| 20260904182054 | 72 | 338 | 2.0 | 8.0 | 0.00 | 0.00 | 0.00 | 87 | 1012.8 |
| 20260904181700 | 72 | 315 | 2.0 | 8.0 | 0.00 | 0.00 | 0.00 | 87 | 1012.8 |
| 20260904181052 | 72 | 326 | 2.0 | 7.0 | 0.00 | 0.00 | 0.00 | 87 | 1012.6 |
| 20260904180653 | 72 | 344 | 2.0 | 7.0 | 0.00 | 0.00 | 0.00 | 87 | 1012.6 |
| 20260904175650 | 72 | 0 | 2.0 | 8.0 | 0.00 | 0.00 | 0.00 | 86 | 1012.5 |
| 20260904175051 | 72 | 355 | 4.0 | 9.0 | 0.00 | 0.00 | 0.00 | 86 | 1012.5 |
| 20260904174653 | 73 | 323 | 4.0 | 9.0 | 0.00 | 0.00 | 0.00 | 86 | 1012.4 |
| 20260904174051 | 73 | 314 | 4.0 | 12.0 | 0.00 | 0.00 | 0.00 | 85 | 1012.3 |
| 20260904173648 | 73 | 285 | 4.0 | 12.0 | 0.00 | 0.00 | 0.00 | 85 | 1012.3 |
| 20260904173052 | 73 | 300 | 4.0 | 9.0 | 0.00 | 0.00 | 0.00 | 84 | 1012.2 |
| 20260904172649 | 73 | 301 | 4.0 | 9.0 | 0.00 | 0.00 | 0.00 | 84 | 1012.2 |
| 20260904172049 | 73 | 276 | 4.0 | 10.0 | 0.00 | 0.00 | 0.00 | 84 | 1012.2 |
| 20260904171650 | 74 | 254 | 3.0 | 10.0 | 0.00 | 0.00 | 0.00 | 83 | 1012.1 |
| 20260904171053 | 74 | 297 | 3.0 | 10.0 | 0.00 | 0.00 | 0.00 | 83 | 1012.1 |
| 20260904170646 | 74 | 282 | 3.0 | 9.0 | 0.00 | 0.00 | 0.00 | 82 | 1012.0 |
| 20260904170049 | 74 | 323 | 3.0 | 10.0 | 0.00 | 0.00 | 0.00 | 82 | 1011.9 |
| 20260904165640 | 74 | 284 | 3.0 | 10.0 | 0.00 | 0.00 | 0.00 | 81 | 1011.8 |
| 20260904165046 | 74 | 298 | 4.0 | 9.0 | 0.00 | 0.00 | 0.00 | 80 | 1011.7 |
| 20260904164641 | 74 | 331 | 5.0 | 11.0 | 0.00 | 0.00 | 0.00 | 80 | 1011.6 |
| 20260904164045 | 75 | 289 | 5.0 | 12.0 | 0.00 | 0.00 | 0.00 | 79 | 1011.6 |
| 20260904163642 | 75 | 329 | 6.0 | 13.0 | 0.00 | 0.00 | 0.00 | 78 | 1011.6 |
| 20260904163046 | 75 | 342 | 6.0 | 13.0 | 0.00 | 0.00 | 0.00 | 77 | 1011.5 |
| 20260904162634 | 75 | 0 | 5.0 | 11.0 | 0.00 | 0.00 | 0.00 | 76 | 1011.4 |
| 20260904162047 | 76 | 304 | 5.0 | 11.0 | 0.00 | 0.00 | 0.00 | 75 | 1011.3 |
| 20260904161639 | 76 | 349 | 5.0 | 12.0 | 0.00 | 0.00 | 0.00 | 74 | 1011.3 |
| 20260904161046 | 76 | 325 | 4.0 | 12.0 | 0.00 | 0.00 | 0.00 | 73 | 1011.1 |
| 20260904160632 | 76 | 327 | 5.0 | 12.0 | 0.00 | 0.00 | 0.00 | 72 | 1011.1 |
| 20260904160047 | 76 | 304 | 5.0 | 12.0 | 0.00 | 0.00 | 0.00 | 71 | 1011.0 |
| 20260904155044 | 77 | 304 | 4.0 | 13.0 | 0.00 | 0.00 | 0.00 | 69 | 1011.0 |
| 20260904154633 | 77 | 286 | 5.0 | 13.0 | 0.00 | 0.00 | 0.00 | 68 | 1011.0 |
| 20260904153626 | 78 | 313 | 4.0 | 11.0 | 0.00 | 0.00 | 0.00 | 66 | 1010.8 |
| 20260904151622 | 79 | 255 | 4.0 | 13.0 | 0.00 | 0.00 | 0.00 | 64 | 1010.6 |
| 20260904151032 | 80 | 304 | 4.0 | 13.0 | 0.00 | 0.00 | 0.00 | 63 | 1010.7 |
| 20260904150034 | 80 | 348 | 4.0 | 10.0 | 0.00 | 0.00 | 0.00 | 61 | 1010.7 |
| 20260904145621 | 80 | 302 | 5.0 | 12.0 | 0.00 | 0.00 | 0.00 | 61 | 1010.7 |
| 20260904144618 | 81 | 305 | 5.0 | 12.0 | 0.00 | 0.00 | 0.00 | 60 | 1010.7 |
| 20260904144033 | 81 | 296 | 5.0 | 12.0 | 0.00 | 0.00 | 0.00 | 59 | 1010.7 |
| 20260904143614 | 81 | 344 | 4.0 | 12.0 | 0.00 | 0.00 | 0.00 | 59 | 1010.7 |
| 20260904143030 | 81 | 329 | 4.0 | 11.0 | 0.00 | 0.00 | 0.00 | 59 | 1010.6 |
| 20260904142615 | 81 | 321 | 4.0 | 13.0 | 0.00 | 0.00 | 0.00 | 59 | 1010.7 |
| 20260904142031 | 82 | 311 | 4.0 | 13.0 | 0.00 | 0.00 | 0.00 | 58 | 1010.7 |
| 20260904141617 | 82 | 13 | 5.0 | 13.0 | 0.00 | 0.00 | 0.00 | 57 | 1010.7 |
| 20260904141023 | 82 | 5 | 5.0 | 13.0 | 0.00 | 0.00 | 0.00 | 56 | 1010.6 |
| 20260904140609 | 82 | 344 | 4.0 | 13.0 | 0.00 | 0.00 | 0.00 | 56 | 1010.7 |
| 20260904140024 | 83 | 285 | 5.0 | 16.0 | 0.00 | 0.00 | 0.00 | 55 | 1010.7 |
| 20260904135610 | 83 | 295 | 5.0 | 16.0 | 0.00 | 0.00 | 0.00 | 56 | 1010.6 |
| 20260904135022 | 83 | 351 | 5.0 | 13.0 | 0.00 | 0.00 | 0.00 | 55 | 1010.6 |
| 20260904134609 | 83 | 327 | 5.0 | 11.0 | 0.00 | 0.00 | 0.00 | 54 | 1010.6 |
| 20260904134020 | 83 | 348 | 4.0 | 11.0 | 0.00 | 0.00 | 0.00 | 52 | 1010.6 |
| 20260904133606 | 83 | 345 | 5.0 | 11.0 | 0.00 | 0.00 | 0.00 | 54 | 1010.6 |
| 20260904132607 | 84 | 316 | 5.0 | 14.0 | 0.00 | 0.00 | 0.00 | 49 | 1010.7 |
| 20260904132019 | 84 | 321 | 5.0 | 14.0 | 0.00 | 0.00 | 0.00 | 50 | 1010.6 |
| 20260904131606 | 84 | 301 | 5.0 | 10.0 | 0.00 | 0.00 | 0.00 | 50 | 1010.6 |
| 20260904130601 | 84 | 298 | 5.0 | 14.0 | 0.00 | 0.00 | 0.00 | 48 | 1010.5 |
| 20260904130011 | 84 | 340 | 7.0 | 15.0 | 0.00 | 0.00 | 0.00 | 49 | 1010.5 |
| 20260904125601 | 84 | 312 | 6.0 | 15.0 | 0.00 | 0.00 | 0.00 | 49 | 1010.5 |
| 20260904125011 | 84 | 280 | 4.0 | 11.0 | 0.00 | 0.00 | 0.00 | 47 | 1010.5 |
| 20260904124600 | 84 | 285 | 4.0 | 12.0 | 0.00 | 0.00 | 0.00 | 48 | 1010.5 |
| 20260904124005 | 84 | 294 | 6.0 | 15.0 | 0.00 | 0.00 | 0.00 | 48 | 1010.4 |
| 20260904123558 | 84 | 288 | 5.0 | 15.0 | 0.00 | 0.00 | 0.00 | 48 | 1010.5 |
| 20260904122556 | 85 | 343 | 4.0 | 12.0 | 0.00 | 0.00 | 0.00 | 47 | 1010.6 |
| 20260904122001 | 85 | 306 | 4.0 | 12.0 | 0.00 | 0.00 | 0.00 | 48 | 1010.5 |
| 20260904121555 | 85 | 0 | 5.0 | 12.0 | 0.00 | 0.00 | 0.00 | 49 | 1010.5 |
| 20260904121005 | 85 | 268 | 4.0 | 12.0 | 0.00 | 0.00 | 0.00 | 48 | 1010.5 |
| 20260904120554 | 85 | 324 | 4.0 | 12.0 | 0.00 | 0.00 | 0.00 | 48 | 1010.6 |
| 20260904115959 | 85 | 11 | 4.0 | 12.0 | 0.00 | 0.00 | 0.00 | 50 | 1010.5 |
| 20260904115551 | 85 | 15 | 4.0 | 10.0 | 0.00 | 0.00 | 0.00 | 50 | 1010.5 |
| 20260904114959 | 85 | 0 | 5.0 | 10.0 | 0.00 | 0.00 | 0.00 | 51 | 1010.5 |
| 20260904114546 | 85 | 329 | 5.0 | 11.0 | 0.00 | 0.00 | 0.00 | 51 | 1010.5 |
| 20260904112954 | 85 | 274 | 4.0 | 12.0 | 0.00 | 0.00 | 0.00 | 50 | 1010.6 |
| 20260904112543 | 85 | 316 | 4.0 | 11.0 | 0.00 | 0.00 | 0.00 | 49 | 1010.6 |
| 20260904111956 | 85 | 254 | 3.0 | 11.0 | 0.00 | 0.00 | 0.00 | 47 | 1010.7 |
| 20260904111540 | 85 | 250 | 3.0 | 10.0 | 0.00 | 0.00 | 0.00 | 47 | 1010.7 |
| 20260904110956 | 85 | 276 | 4.0 | 9.0 | 0.00 | 0.00 | 0.00 | 48 | 1010.8 |
| 20260904110538 | 85 | 303 | 4.0 | 10.0 | 0.00 | 0.00 | 0.00 | 48 | 1010.8 |
| 20260904105539 | 84 | 325 | 2.0 | 9.0 | 0.00 | 0.00 | 0.00 | 44 | 1011.0 |
| 20260904104947 | 84 | 251 | 3.0 | 11.0 | 0.00 | 0.00 | 0.00 | 46 | 1011.0 |
| 20260904103945 | 85 | 347 | 4.0 | 11.0 | 0.00 | 0.00 | 0.00 | 47 | 1010.9 |
| 20260904103531 | 85 | 329 | 3.0 | 11.0 | 0.00 | 0.00 | 0.00 | 47 | 1010.9 |
| 20260904102946 | 85 | 257 | 3.0 | 9.0 | 0.00 | 0.00 | 0.00 | 44 | 1010.9 |
| 20260904101949 | 85 | 290 | 2.0 | 8.0 | 0.00 | 0.00 | 0.00 | 45 | 1011.0 |
| 20260904101531 | 85 | 281 | 3.0 | 10.0 | 0.00 | 0.00 | 0.00 | 45 | 1011.0 |
| 20260904100942 | 84 | 341 | 4.0 | 10.0 | 0.00 | 0.00 | 0.00 | 46 | 1011.0 |
| 20260904095942 | 84 | 11 | 2.0 | 8.0 | 0.00 | 0.00 | 0.00 | 47 | 1010.9 |
| 20260904095521 | 83 | 257 | 2.0 | 11.0 | 0.00 | 0.00 | 0.00 | 46 | 1011.0 |
| 20260904094942 | 83 | 270 | 2.0 | 11.0 | 0.00 | 0.00 | 0.00 | 47 | 1011.1 |
| 20260904094524 | 83 | 329 | 2.0 | 8.0 | 0.00 | 0.00 | 0.00 | 46 | 1011.1 |
| 20260904093524 | 83 | 269 | 2.0 | 9.0 | 0.00 | 0.00 | 0.00 | 49 | 1011.0 |
| 20260904092936 | 83 | 278 | 2.0 | 9.0 | 0.00 | 0.00 | 0.00 | 48 | 1011.1 |
| 20260904092520 | 83 | 252 | 2.0 | 7.0 | 0.00 | 0.00 | 0.00 | 50 | 1011.1 |
| 20260904091933 | 83 | 324 | 2.0 | 7.0 | 0.00 | 0.00 | 0.00 | 50 | 1011.1 |
| 20260904091519 | 83 | 229 | 2.0 | 8.0 | 0.00 | 0.00 | 0.00 | 50 | 1011.4 |
| 20260904090932 | 83 | 330 | 2.0 | 8.0 | 0.00 | 0.00 | 0.00 | 51 | 1011.4 |
| 20260904085931 | 82 | 300 | 3.0 | 9.0 | 0.00 | 0.00 | 0.00 | 50 | 1011.5 |
| 20260904084515 | 83 | 247 | 2.0 | 8.0 | 0.00 | 0.00 | 0.00 | 52 | 1011.5 |
| 20260904083515 | 82 | 342 | 2.0 | 8.0 | 0.00 | 0.00 | 0.00 | 50 | 1011.6 |
| 20260904082924 | 82 | 20 | 2.0 | 11.0 | 0.00 | 0.00 | 0.00 | 50 | 1011.5 |
| 20260904082511 | 82 | 285 | 1.0 | 11.0 | 0.00 | 0.00 | 0.00 | 51 | 1011.6 |
| 20260904081925 | 81 | 277 | 1.0 | 8.0 | 0.00 | 0.00 | 0.00 | 50 | 1011.6 |
| 20260904081514 | 80 | 247 | 2.0 | 9.0 | 0.00 | 0.00 | 0.00 | 48 | 1011.7 |
| 20260904080923 | 80 | 273 | 2.0 | 9.0 | 0.00 | 0.00 | 0.00 | 50 | 1011.6 |
| 20260904080506 | 80 | 350 | 1.0 | 5.0 | 0.00 | 0.00 | 0.00 | 53 | 1011.6 |
| 20260904075921 | 80 | 315 | 2.0 | 8.0 | 0.00 | 0.00 | 0.00 | 52 | 1011.7 |
| 20260904075507 | 80 | 325 | 3.0 | 10.0 | 0.00 | 0.00 | 0.00 | 51 | 1011.7 |
| 20260904074923 | 80 | 333 | 2.0 | 10.0 | 0.00 | 0.00 | 0.00 | 52 | 1011.7 |
| 20260904074502 | 80 | 229 | 2.0 | 7.0 | 0.00 | 0.00 | 0.00 | 53 | 1011.7 |
| 20260904073922 | 80 | 280 | 2.0 | 8.0 | 0.00 | 0.00 | 0.00 | 52 | 1011.7 |
| 20260904073458 | 80 | 298 | 2.0 | 8.0 | 0.00 | 0.00 | 0.00 | 53 | 1011.7 |
| 20260904072924 | 79 | 302 | 2.0 | 7.0 | 0.00 | 0.00 | 0.00 | 55 | 1011.7 |
| 20260904072502 | 79 | 355 | 2.0 | 6.0 | 0.00 | 0.00 | 0.00 | 55 | 1011.7 |
| 20260904071915 | 79 | 334 | 2.0 | 8.0 | 0.00 | 0.00 | 0.00 | 57 | 1011.7 |
| 20260904071456 | 78 | 0 | 3.0 | 8.0 | 0.00 | 0.00 | 0.00 | 59 | 1011.7 |
| 20260904070452 | 78 | 348 | 2.0 | 7.0 | 0.00 | 0.00 | 0.00 | 59 | 1011.7 |
| 20260904065919 | 77 | 9 | 2.0 | 5.0 | 0.00 | 0.00 | 0.00 | 59 | 1011.6 |
| 20260904064916 | 76 | 283 | 2.0 | 5.0 | 0.00 | 0.00 | 0.00 | 59 | 1011.5 |
| 20260904064453 | 76 | 256 | 2.0 | 5.0 | 0.00 | 0.00 | 0.00 | 58 | 1011.6 |
| 20260904063917 | 75 | 274 | 2.0 | 6.0 | 0.00 | 0.00 | 0.00 | 57 | 1011.5 |
| 20260904063457 | 75 | 321 | 1.0 | 6.0 | 0.00 | 0.00 | 0.00 | 61 | 1011.5 |
| 20260904062447 | 74 | 248 | 1.0 | 4.0 | 0.00 | 0.00 | 0.00 | 69 | 1011.5 |
| 20260904061917 | 74 | 296 | 1.0 | 4.0 | 0.00 | 0.00 | 0.00 | 71 | 1011.5 |
| 20260904061447 | 73 | 285 | 1.0 | 5.0 | 0.00 | 0.00 | 0.00 | 73 | 1011.5 |
| 20260904060918 | 73 | 317 | 1.0 | 5.0 | 0.00 | 0.00 | 0.00 | 75 | 1011.5 |
| 20260904060446 | 72 | 250 | 0.0 | 4.0 | 0.00 | 0.00 | 0.00 | 77 | 1011.4 |
| 20260904055916 | 72 | 294 | 1.0 | 4.0 | 0.00 | 0.00 | 0.00 | 79 | 1011.5 |
| 20260904055443 | 72 | 320 | 1.0 | 6.0 | 0.00 | 0.00 | 0.00 | 81 | 1011.4 |
| 20260904054918 | 71 | 271 | 2.0 | 6.0 | 0.00 | 0.00 | 0.00 | 81 | 1011.3 |
| 20260904053919 | 71 | 315 | 2.0 | 5.0 | 0.00 | 0.00 | 0.00 | 83 | 1011.3 |
| 20260904053441 | 70 | 269 | 1.0 | 8.0 | 0.00 | 0.00 | 0.00 | 83 | 1011.3 |
| 20260904052441 | 70 | 276 | 1.0 | 4.0 | 0.00 | 0.00 | 0.00 | 86 | 1011.3 |
| 20260904051915 | 69 | 259 | 1.0 | 4.0 | 0.00 | 0.00 | 0.00 | 86 | 1011.3 |
| 20260904051436 | 69 | 302 | 1.0 | 5.0 | 0.00 | 0.00 | 0.00 | 87 | 1011.1 |
| 20260904050917 | 69 | 298 | 1.0 | 5.0 | 0.00 | 0.00 | 0.00 | 88 | 1011.1 |
| 20260904050436 | 69 | 302 | 1.0 | 6.0 | 0.00 | 0.00 | 0.00 | 88 | 1011.1 |
| 20260904045432 | 68 | 262 | 0.0 | 3.0 | 0.00 | 0.00 | 0.00 | 90 | 1011.0 |
| 20260904044915 | 68 | 270 | 0.0 | 2.0 | 0.00 | 0.00 | 0.00 | 90 | 1011.0 |
| 20260904044434 | 68 | 271 | 0.0 | 2.0 | 0.00 | 0.00 | 0.00 | 90 | 1011.0 |
| 20260904043916 | 68 | 271 | 0.0 | 2.0 | 0.00 | 0.00 | 0.00 | 91 | 1010.9 |
| 20260904043431 | 68 | 271 | 0.0 | 2.0 | 0.00 | 0.00 | 0.00 | 91 | 1011.0 |
| 20260904042916 | 68 | 281 | 0.0 | 0.0 | 0.00 | 0.00 | 0.00 | 91 | 1011.0 |
| 20260904042429 | 67 | 281 | 0.0 | 0.0 | 0.00 | 0.00 | 0.00 | 91 | 1011.0 |
| 20260904041424 | 66 | 282 | 0.0 | 1.0 | 0.00 | 0.00 | 0.00 | 90 | 1010.9 |
| 20260904040904 | 67 | 282 | 0.0 | 1.0 | 0.00 | 0.00 | 0.00 | 90 | 1010.9 |
| 20260904040420 | 67 | 282 | 0.0 | 1.0 | 0.00 | 0.00 | 0.00 | 90 | 1010.9 |
| 20260904035852 | 67 | 282 | 0.0 | 2.0 | 0.00 | 0.00 | 0.00 | 90 | 1010.8 |
| 20260904035420 | 67 | 282 | 0.0 | 3.0 | 0.00 | 0.00 | 0.00 | 91 | 1010.7 |
| 20260904034851 | 66 | 281 | 1.0 | 3.0 | 0.00 | 0.00 | 0.00 | 91 | 1010.8 |
| 20260904034421 | 66 | 271 | 0.0 | 2.0 | 0.00 | 0.00 | 0.00 | 91 | 1010.7 |
| 20260904033851 | 66 | 271 | 0.0 | 2.0 | 0.00 | 0.00 | 0.00 | 90 | 1010.6 |
| 20260904033420 | 66 | 271 | 0.0 | 2.0 | 0.00 | 0.00 | 0.00 | 91 | 1010.6 |
| 20260904032845 | 67 | 271 | 0.0 | 3.0 | 0.00 | 0.00 | 0.00 | 91 | 1010.5 |
| 20260904032415 | 66 | 271 | 0.0 | 3.0 | 0.00 | 0.00 | 0.00 | 91 | 1010.5 |
| 20260904031834 | 66 | 271 | 1.0 | 3.0 | 0.00 | 0.00 | 0.00 | 91 | 1010.4 |
| 20260904031414 | 66 | 270 | 1.0 | 3.0 | 0.00 | 0.00 | 0.00 | 91 | 1010.4 |
| 20260904030830 | 67 | 269 | 1.0 | 3.0 | 0.00 | 0.00 | 0.00 | 91 | 1010.4 |
| 20260904025826 | 67 | 282 | 1.0 | 4.0 | 0.00 | 0.00 | 0.00 | 91 | 1010.4 |
| 20260904025409 | 67 | 287 | 1.0 | 3.0 | 0.00 | 0.00 | 0.00 | 91 | 1010.4 |
| 20260904024828 | 66 | 286 | 1.0 | 3.0 | 0.00 | 0.00 | 0.00 | 91 | 1010.4 |
| 20260904024404 | 67 | 281 | 0.0 | 3.0 | 0.00 | 0.00 | 0.00 | 91 | 1010.3 |
| 20260904023405 | 66 | 279 | 0.0 | 3.0 | 0.00 | 0.00 | 0.00 | 92 | 1010.3 |
| 20260904022822 | 66 | 275 | 0.0 | 2.0 | 0.00 | 0.00 | 0.00 | 91 | 1010.3 |
| 20260904022407 | 66 | 275 | 0.0 | 3.0 | 0.00 | 0.00 | 0.00 | 92 | 1010.2 |
| 20260904021823 | 66 | 275 | 1.0 | 4.0 | 0.00 | 0.00 | 0.00 | 92 | 1010.2 |
| 20260904020821 | 66 | 294 | 2.0 | 5.0 | 0.00 | 0.00 | 0.00 | 92 | 1010.1 |
| 20260904020400 | 66 | 290 | 2.0 | 5.0 | 0.00 | 0.00 | 0.00 | 92 | 1010.1 |
| 20260904015819 | 66 | 297 | 2.0 | 5.0 | 0.00 | 0.00 | 0.00 | 92 | 1010.1 |
| 20260904014819 | 66 | 319 | 1.0 | 6.0 | 0.00 | 0.00 | 0.00 | 92 | 1010.1 |
| 20260904014401 | 66 | 349 | 1.0 | 6.0 | 0.00 | 0.00 | 0.00 | 92 | 1010.1 |
| 20260904013816 | 66 | 340 | 1.0 | 5.0 | 0.00 | 0.00 | 0.00 | 92 | 1010.2 |
| 20260904013353 | 66 | 309 | 1.0 | 5.0 | 0.00 | 0.00 | 0.00 | 92 | 1010.2 |
| 20260904012816 | 67 | 337 | 1.0 | 4.0 | 0.00 | 0.00 | 0.00 | 92 | 1010.2 |
| 20260904012355 | 67 | 267 | 1.0 | 4.0 | 0.00 | 0.00 | 0.00 | 93 | 1010.1 |
| 20260904011353 | 67 | 267 | 2.0 | 7.0 | 0.00 | 0.00 | 0.00 | 93 | 1010.1 |
| 20260904010348 | 67 | 271 | 2.0 | 9.0 | 0.00 | 0.00 | 0.00 | 93 | 1010.1 |
| 20260904005805 | 67 | 322 | 3.0 | 9.0 | 0.00 | 0.00 | 0.00 | 93 | 1010.1 |
| 20260904004345 | 67 | 276 | 2.0 | 8.0 | 0.00 | 0.00 | 0.00 | 93 | 1010.0 |
| 20260904003804 | 67 | 277 | 2.0 | 7.0 | 0.00 | 0.00 | 0.00 | 93 | 1010.0 |
| 20260904003345 | 67 | 325 | 2.0 | 5.0 | 0.00 | 0.00 | 0.00 | 93 | 1010.0 |
| 20260904002758 | 68 | 288 | 2.0 | 8.0 | 0.00 | 0.00 | 0.00 | 93 | 1010.0 |
| 20260904002342 | 68 | 317 | 2.0 | 8.0 | 0.00 | 0.00 | 0.00 | 93 | 1010.1 |
| 20260904001759 | 68 | 355 | 1.0 | 7.0 | 0.00 | 0.00 | 0.00 | 93 | 1010.1 |
| 20260904000753 | 68 | 233 | 1.0 | 4.0 | 0.00 | 0.00 | 0.00 | 93 | 1010.1 |
| 20260904000340 | 68 | 281 | 1.0 | 4.0 | 0.00 | 0.00 | 0.00 | 93 | 1010.1 |
| 20260903235754 | 68 | 283 | 2.0 | 8.0 | 0.00 | 0.00 | 0.00 | 93 | 1010.1 |
| 20260903235338 | 68 | 313 | 3.0 | 8.0 | 0.00 | 0.00 | 0.00 | 93 | 1010.1 |
| 20260903234750 | 68 | 313 | 2.0 | 8.0 | 0.00 | 0.00 | 0.00 | 93 | 1010.1 |
| 20260903233745 | 68 | 325 | 2.0 | 5.0 | 0.00 | 0.00 | 0.00 | 92 | 1010.2 |
| 20260903233334 | 68 | 323 | 2.0 | 5.0 | 0.00 | 0.00 | 0.00 | 92 | 1010.2 |
| 20260903232741 | 68 | 318 | 2.0 | 5.0 | 0.00 | 0.00 | 0.00 | 92 | 1010.2 |
| 20260903232335 | 68 | 317 | 2.0 | 6.0 | 0.00 | 0.00 | 0.00 | 92 | 1010.2 |
| 20260903231739 | 68 | 338 | 2.0 | 6.0 | 0.00 | 0.00 | 0.00 | 92 | 1010.1 |
| 20260903231327 | 68 | 319 | 1.0 | 6.0 | 0.00 | 0.00 | 0.00 | 92 | 1010.2 |
| 20260903230739 | 68 | 288 | 1.0 | 5.0 | 0.00 | 0.00 | 0.00 | 92 | 1010.2 |
| 20260903230324 | 69 | 346 | 1.0 | 5.0 | 0.00 | 0.00 | 0.00 | 92 | 1010.3 |
| 20260903225738 | 69 | 313 | 1.0 | 5.0 | 0.00 | 0.00 | 0.00 | 92 | 1010.4 |
| 20260903225325 | 69 | 331 | 2.0 | 6.0 | 0.00 | 0.00 | 0.00 | 92 | 1010.4 |
| 20260903224734 | 69 | 261 | 2.0 | 6.0 | 0.00 | 0.00 | 0.00 | 92 | 1010.4 |
| 20260903224322 | 69 | 329 | 1.0 | 7.0 | 0.00 | 0.00 | 0.00 | 92 | 1010.4 |
| 20260903223738 | 69 | 292 | 1.0 | 7.0 | 0.00 | 0.00 | 0.00 | 92 | 1010.5 |
| 20260903223322 | 69 | 313 | 1.0 | 4.0 | 0.00 | 0.00 | 0.00 | 92 | 1010.5 |
| 20260903222727 | 69 | 286 | 2.0 | 7.0 | 0.00 | 0.00 | 0.00 | 92 | 1010.4 |
| 20260903222319 | 69 | 290 | 2.0 | 7.0 | 0.00 | 0.00 | 0.00 | 92 | 1010.5 |
| 20260903221317 | 69 | 9 | 2.0 | 6.0 | 0.00 | 0.00 | 0.00 | 92 | 1010.5 |
| 20260903220726 | 70 | 323 | 2.0 | 6.0 | 0.00 | 0.00 | 0.00 | 92 | 1010.6 |
| 20260903220314 | 70 | 342 | 2.0 | 7.0 | 0.00 | 0.00 | 0.00 | 92 | 1010.6 |
| 20260903215724 | 70 | 311 | 3.0 | 9.0 | 0.00 | 0.00 | 0.00 | 92 | 1010.6 |
| 20260903215311 | 70 | 328 | 3.0 | 9.0 | 0.00 | 0.00 | 0.00 | 92 | 1010.7 |
| 20260903214313 | 70 | 280 | 3.0 | 9.0 | 0.00 | 0.00 | 0.00 | 92 | 1010.8 |
| 20260903213723 | 70 | 320 | 3.0 | 9.0 | 0.00 | 0.00 | 0.00 | 92 | 1010.8 |
| 20260903213313 | 70 | 350 | 2.0 | 8.0 | 0.00 | 0.00 | 0.00 | 91 | 1010.7 |
| 20260903212724 | 70 | 332 | 2.0 | 8.0 | 0.00 | 0.00 | 0.00 | 91 | 1010.7 |
| 20260903212309 | 70 | 334 | 2.0 | 9.0 | 0.00 | 0.00 | 0.00 | 91 | 1010.8 |
| 20260903211726 | 70 | 298 | 2.0 | 9.0 | 0.00 | 0.00 | 0.00 | 91 | 1010.7 |
| 20260903211308 | 70 | 350 | 2.0 | 7.0 | 0.00 | 0.00 | 0.00 | 91 | 1010.8 |
| 20260903210723 | 70 | 288 | 2.0 | 7.0 | 0.00 | 0.00 | 0.00 | 91 | 1010.8 |
| 20260903205723 | 70 | 340 | 2.0 | 9.0 | 0.00 | 0.00 | 0.00 | 91 | 1010.8 |
| 20260903205301 | 70 | 14 | 2.0 | 9.0 | 0.00 | 0.00 | 0.00 | 91 | 1010.9 |
| 20260903204713 | 70 | 22 | 2.0 | 5.0 | 0.00 | 0.00 | 0.00 | 91 | 1010.9 |
| 20260903204258 | 70 | 0 | 2.0 | 7.0 | 0.00 | 0.00 | 0.00 | 91 | 1010.9 |
| 20260903203713 | 71 | 343 | 3.0 | 11.0 | 0.00 | 0.00 | 0.00 | 91 | 1010.9 |
| 20260903203300 | 71 | 304 | 3.0 | 11.0 | 0.00 | 0.00 | 0.00 | 91 | 1011.0 |
| 20260903202715 | 71 | 294 | 3.0 | 9.0 | 0.00 | 0.00 | 0.00 | 90 | 1010.9 |
| 20260903202258 | 71 | 300 | 3.0 | 9.0 | 0.00 | 0.00 | 0.00 | 90 | 1010.9 |
| 20260903201715 | 71 | 306 | 2.0 | 9.0 | 0.00 | 0.00 | 0.00 | 90 | 1010.9 |
| 20260903201254 | 71 | 323 | 2.0 | 8.0 | 0.00 | 0.00 | 0.00 | 91 | 1010.9 |
| 20260903200710 | 71 | 323 | 2.0 | 8.0 | 0.00 | 0.00 | 0.00 | 90 | 1011.0 |
| 20260903200253 | 71 | 328 | 2.0 | 8.0 | 0.00 | 0.00 | 0.00 | 90 | 1011.0 |
| 20260903195710 | 71 | 296 | 3.0 | 9.0 | 0.00 | 0.00 | 0.00 | 90 | 1011.0 |
| 20260903195252 | 72 | 332 | 2.0 | 9.0 | 0.00 | 0.00 | 0.00 | 90 | 1011.0 |